Welcome to the New NWS' Forecast!
Most changes are behind the scenes, but click here for differences you might notice.
Latest weather observations around

Auburn-Opelika Airport (KAUO)

Using International System of Units (Switch to English Units)
Date/ Time (CDT) Wind (kph) Vis. (km) Weather Sky Cond. Temp (°C) Rel. Humidity Wind Chill (°C) Heat Index (°C) Pressure Precip. (cm)
Air Dwpt 6 hour Altimeter (hPa) Sea level (hPa) 1 hr 3 hr 6 hr
Max Min
Aug 15 21:56 SSW 11 16.09 Clear CLR 26 23     85%   26 1020 1020.9      
Aug 15 20:56 SSE 17 16.09 Clear CLR 27 23     79%   30 1019.3 1020.2      
Aug 15 19:56 Calm 16.09 Clear CLR 28 23     72%   32 1019.3 1019.9      
Aug 15 18:56 ESE 5 16.09 Clear CLR 29 23     68%   33 1019 1019.7      
Aug 15 17:56 Calm 16.09 Clear CLR 31 21     55%   34 1018.6 1019.5      
Aug 15 16:56 S 9 14.48 Clear CLR 32 21     53%   35 1018.6 1019.3      
Aug 15 15:56 S 11 16.09 Clear CLR 32 21     53%   35 1018.6 1019.4      
Aug 15 14:56 9 16.09 Mostly Cloudy BKN047 32 22     55%   35 1018.6 1019.5      
Aug 15 13:56 11 16.09 Clear CLR 32 22     55%   35 1019.3 1020.2      
Aug 15 12:56   16.09 Mostly Clear FEW045 31 22     59%   35 1020 1020.6      
Aug 15 11:56 8 16.09 Clear CLR 31 23     65%   35 1020.3 1020.9      
Aug 15 10:56 SE 9 16.09 Clear CLR 29 23     68%   33 1020.3 1021.3      
Aug 15 09:56 Calm 16.09 Clear CLR 28 22     72%   30 1020.3 1021.2      
Aug 15 08:56 Calm 16.09 Clear CLR 27 21     71%   28 1020 1021      
Aug 15 07:56 Calm 16.09 Clear CLR 24 22     85%   25 1019.7 1020.6      
Aug 15 06:56 Calm 16.09 Clear CLR 22 21     96%   22 1019.3 1020.4      
Aug 15 05:56 Calm 16.09 Clear CLR 21 21     100%     1018.6 1019.6      
Aug 15 04:56 Calm 16.09 Clear CLR 22 21     96%   22 1018.3 1019.2      
Aug 15 03:56 NNW 8 16.09 Clear CLR 22 21     96%   22 1018 1018.9      
Aug 15 02:56 Calm 16.09 Clear CLR 22 21     96%   22 1018.3 1019.3      
Aug 15 01:56 Calm 14.48 Clear CLR 22 22     100%   23 1018.3 1019.4      
Aug 15 00:56 Calm 16.09 Clear CLR 22 22     100%   23 1018.6 1019.8      
Aug 14 23:56 Calm 14.48 Clear CLR 22 22     97%   23 1019 1020.2      
Aug 14 22:56 Calm 16.09 Clear CLR 23 22     96%   24 1019 1019.8      
Aug 14 21:56 Calm 16.09 Clear CLR 23 23     97%   24 1018.6 1019.5      
Aug 14 20:56 Calm 16.09 Clear CLR 23 23     97%   24 1018 1018.8      
Aug 14 19:56 Calm 16.09 Clear CLR 24 23     91%   25 1017.3 1018.4      
Aug 14 18:56 SW 5 16.09 Mostly Clear FEW110 26 23     85%   26 1017.6 1018.5     0
Aug 14 17:56 W 9 16.09 Clear CLR 27 23     79%   30 1017.3 1018.1      
Aug 14 16:56 WNW 11 16.09 Clear CLR 28 22     70%   31 1016.9 1017.7      
Aug 14 16:28 W 13 16.09 Clear CLR 28 23     74%   31 1017.3        
Aug 14 15:56 WNW 9 16.09 Thunderstorms CLR 27 23     77%   30 1017.3 1018.3   0  
Aug 14 14:56 NW 8 16.09 Thunderstorms CLR 24 22     90%   25 1017.6 1018.7 0    
Aug 14 14:25 NW 8 16.09 Light Rain FEW044 SCT050 23 22     94%   24 1018.3   0    
Aug 14 13:56 Calm 16.09 Mostly Cloudy FEW032 SCT044 BKN080 23 22     96%   24 1018.6   0    
Aug 14 13:04 WSW 13 6.44 Heavy Rain and Fog/Mist FEW028 BKN037 OVC050 22 21     94%   23 1019.7   0    
Aug 14 12:56 S 15 4.02 Heavy Rain and Fog/Mist FEW028 BKN040 OVC050 22 21     93%   23 1019.3   4   6
Aug 14 12:49 SSE 8 4.83 Heavy Rain and Fog/Mist SCT030 BKN037 OVC075 23 21     89%   24 1019   4    
Notice The following observation data may not be complete
Aug 14 12:37 SE 15 4.02 Heavy Rain and Fog/Mist FEW013 BKN030 OVC049   21      %     1018.6   4    
Notice The following observation data may not be complete
Aug 14 12:30   3.22 Heavy Rain and Fog/Mist SCT011 BKN020 OVC034   21      %     1018.3   3    
Notice The following observation data may not be complete
Aug 14 12:21   1.61 Heavy Rain and Fog/Mist BKN011 BKN016 OVC022   21      %     1019   3    
Notice The following observation data may not be complete
Aug 14 11:56   2.01 Heavy Rain and Fog/Mist BKN009 BKN024 OVC030   21      %     1019.3   2    
Notice The following observation data may not be complete
Aug 14 11:52   2.01 Heavy Rain and Fog/Mist SCT009 BKN024 OVC036   21      %     1019   1    
Aug 14 11:49   3.22 Heavy Rain and Fog/Mist FEW009 BKN030 OVC036 24 22     89%   25 1018.6   1    
Aug 14 10:56 S 13 16.09 Partly Cloudy SCT050 30 23     67%   34 1018.6 1019.1      
Aug 14 09:56 S 9 16.09 Clear CLR 29 23     72%   33 1018.6 1019.2      
Aug 14 08:56 SSE 8 16.09 Clear CLR 28 23     74%   31 1018.3 1018.9      
Aug 14 07:56 Calm 16.09 Clear CLR 24 23     91%   25 1018.3 1018.9      
Aug 14 05:56 Calm 11.27 Clear CLR 22 22     97%   23 1017.6 1018.3      
Aug 14 02:56 Calm 16.09 Clear CLR 23 22     96%   24 1016.9 1017.6      
Aug 14 01:56 SSE 8 16.09 Clear CLR 23 22     94%   24 1017.3 1017.9      
Aug 14 00:56 Calm 16.09 Clear CLR 24 22     90%   25 1017.3 1018      
Aug 13 23:56 SW 8 16.09 Clear CLR 24 22     88%   25 1017.3 1017.8      
Aug 13 22:56 S 13 16.09 Mostly Clear FEW047 25 23     88%   26 1018.3 1018.8      
Aug 13 21:56 Calm 16.09 Mostly Clear FEW110 26 23     82%   28 1018 1018.6      
Aug 13 19:56 Calm 16.09 Clear CLR 28 22     67%   31 1016.9        
Aug 13 18:08 NW 11 16.09 Clear CLR 31 19     49%   32 1015.9        
Aug 13 17:56 NW 13 16.09 Clear CLR 32 19     47%   33 1015.9 1016.6      
Aug 13 16:56 NNW 9 16.09 Clear CLR 32 21     52%   35 1015.9 1016.6      
Aug 13 16:47 WNW 9 16.09 Clear CLR 32 21     52%   35 1016.3        
Aug 13 16:22 WNW 13 16.09 Clear CLR 32 21     52%   35 1016.3        
Aug 13 16:05 NW 15 16.09 Mostly Clear FEW050 32 21     52%   35 1016.3        
Aug 13 14:56 Calm 16.09 Clear CLR 33 20     46%   36 1016.6 1017.2      
Aug 13 13:56 WSW 9 16.09 Mostly Cloudy SCT044 BKN070 BKN095 32 22     57%   36 1018 1018.4      
Aug 13 12:56 11 16.09 Mostly Cloudy BKN043 32 22     55%   35 1018.6 1019      
Aug 13 11:56 Calm 16.09 Clear CLR 31 22     61%   34 1019 1019.7      
Aug 13 10:56 S 9 16.09 Clear CLR 30 22     63%   33 1019.3 1019.9      
Aug 13 09:56 NE 8 14.48 Clear CLR 29 22     67%   32 1019.3 1020      
Aug 13 06:56 NNE 13 16.09 Clear CLR 23 22     91%   24 1018.3 1018.9      
Aug 13 05:56 N 8 16.09 Clear CLR 23 21     90%   23 1017.6 1018.4      
Aug 13 01:56 Calm 16.09 Clear CLR 24 21     84%   25 1017.6 1018.3      
Aug 12 22:56 NW 9 16.09 Clear CLR 26 22     79%   28 1018.6 1019.4      
Aug 12 21:56 NW 9 16.09 Clear CLR 27 22     76%   29 1019 1019.5      
May 15 09:56 ENE 9 16.09 Cloudy BKN021 BKN026 OVC034 24 19     76%   24 1016.6 1017.7   0  
May 14 22:56 SE 9 16.09 Clear CLR 23 18     71%   24 1015.9 1016.6      
May 12 01:56 Calm 16.09 Clear CLR 21 15     70%     1019.7 1020.5      
Notice The following observation data may not be complete
Jun 12 07:35   16.09 Mostly Cloudy BKN004          %              
Jun 11 03:56 ESE 11 16.09 Clear CLR 22 18     81%   22 1019.7 1020.4      
Jun 08 23:56 Calm 16.09 Clear   20 16     78%     1013.2 1014.4      
Jun 08 19:56 Calm 16.09 Mostly Cloudy BKN050 BKN065 24 16     60%   24 1012.2 1013.2      
Jun 08 14:56 Calm 16.09 Mostly Cloudy SCT055 BKN075 26 14     48%   25 1012.2 1013.4      
Jun 08 06:56 ENE 15 16.09 Clear CLR 19 14     75%     1012.5 1013.8      
Jun 08 01:56 E 9 16.09 Cloudy BKN020 BKN026 OVC036 20 18     90%     1011.2 1012.2      
Jun 07 11:56 NE 21 16.09 Cloudy OVC021 24 19     74%   25 1009.5 1010.6      
Jun 06 10:52 NE 9 16.09 Mostly Cloudy BKN014 BKN039 25 22     83%   26 1009.2        
Jun 06 10:19 N 8 16.09 Mostly Cloudy SCT011 BKN016 BKN024 24 22     89%   25 1009.8        
Jun 06 04:38 SSE 5 16.09 Cloudy SCT002 OVC100 21 21     100%     1009.8        
Jun 05 22:56 SE 8 16.09 Light Rain SCT026 BKN036 OVC085 23 22     96%   24 1011.2 1012.1 0    
Jun 05 16:56 SW 13 16.09 Partly Cloudy FEW019 SCT075 SCT100 26 22     77%   28 1010.2 1011.2